Wind_Speed
49 50 50 49 49 49 47 47 46 47 48 50 52 52 53 53 53 52 52 52 52 52 53 55 56 58 59 60 61 60 59 58 59 59 57 54 51 50 49 49 49 48
50 49 49 49 49 49 49 48 47 48 49 51 53 55 56 56 55 54 53 53 53 52 53 55 56 57 58 58 57 57 57 57 58 57 54 51 49 49 50 50 49 48
49 48 47 47 48 49 49 49 49 49 50 51 53 55 57 57 57 57 55 55 54 54 54 55 55 55 55 55 55 55 56 57 56 54 52 50 49 50 51 50 49 49
49 48 47 47 47 48 49 50 50 51 52 53 55 56 58 59 59 59 58 57 57 56 55 55 54 55 55 55 55 56 56 55 54 52 51 50 51 52 52 51 50 52
50 50 49 49 49 50 51 52 53 54 55 56 57 58 59 60 60 60 59 57 57 57 56 55 55 56 57 56 56 56 55 54 53 52 51 51 52 53 52 52 53 54
47 48 50 50 51 52 52 52 53 54 55 57 57 58 58 58 58 57 56 56 56 56 55 55 56 57 57 57 57 56 55 54 53 52 52 52 53 53 54 55 56 57
42 43 45 46 47 48 48 49 50 51 53 54 54 54 54 54 54 54 55 55 55 55 55 56 57 57 58 58 57 56 54 53 52 52 52 53 54 55 56 58 59 61
41 41 41 42 42 43 44 45 47 48 49 50 50 50 51 52 52 54 54 55 55 55 56 57 57 58 59 58 57 55 53 52 51 52 52 54 55 57 59 60 62 63
42 42 42 42 42 42 43 44 45 46 47 48 48 49 51 51 52 53 54 55 55 56 57 58 58 58 58 57 56 54 52 51 51 52 54 55 57 58 61 63 64 66
44 44 44 44 44 44 44 44 44 45 46 47 48 49 50 51 52 53 54 55 57 57 58 58 58 57 56 55 54 52 51 51 52 54 55 57 58 60 62 64 66 68
44 45 44 44 44 44 44 44 45 46 47 48 49 50 51 51 52 54 55 56 57 57 57 57 57 56 54 53 51 51 52 53 54 55 57 58 60 62 64 66 68 71
45 45 45 45 45 45 45 46 47 48 49 50 51 52 52 53 54 55 56 56 56 56 57 57 56 55 54 52 51 52 54 55 56 57 59 60 62 64 66 68 71 72
45 45 46 46 46 47 47 48 50 51 52 53 53 54 54 55 55 55 56 56 55 56 56 57 56 55 54 53 52 53 55 56 57 59 61 62 64 66 68 70 72 74
44 45 45 46 47 47 48 50 51 52 53 54 55 55 55 55 55 55 55 54 55 56 56 56 55 55 54 54 53 54 56 58 59 61 62 64 66 68 71 73 74 76
43 44 45 46 47 48 49 51 53 53 55 55 56 56 56 55 55 54 54 54 55 56 56 56 56 55 55 54 55 56 58 59 61 63 64 66 68 71 73 75 76 77
45 46 46 47 48 49 51 52 53 54 55 55 56 55 55 54 54 53 54 55 56 56 56 56 56 55 55 55 56 58 60 61 63 65 66 68 71 73 76 77 77 77
49 49 49 49 50 51 52 52 53 53 54 54 54 54 53 53 54 54 54 55 55 55 56 55 55 55 55 56 58 60 62 63 65 66 68 71 73 75 77 77 76 76
50 50 50 51 51 51 51 51 52 52 53 53 53 53 53 53 54 54 54 55 55 55 55 55 54 55 56 58 60 62 63 65 66 68 70 73 75 76 76 76 75 74
49 49 49 49 49 49 50 50 51 51 52 53 53 53 53 54 54 54 55 55 55 55 55 55 55 57 59 61 62 63 65 66 68 70 73 75 76 76 75 75 74 73
49 48 47 48 48 49 50 50 51 51 52 52 52 53 53 54 54 55 55 55 55 55 55 56 57 59 61 63 64 65 66 68 70 72 74 75 75 75 74 73 73 72
52 50 49 49 50 50 51 51 51 51 51 51 52 53 53 54 54 54 55 55 55 56 57 58 59 61 62 64 65 66 67 69 72 74 75 75 74 74 73 72 72 71
56 54 52 52 52 52 52 51 51 51 52 52 52 53 53 54 54 54 55 55 56 57 58 59 60 62 63 65 66 68 70 72 74 75 74 74 73 73 72 71 71 70
55 53 52 52 52 51 51 51 52 52 53 53 53 53 54 54 55 55 56 56 58 59 60 60 61 63 65 67 69 70 72 74 74 74 73 73 72 71 71 70 70 69
51 50 50 50 50 50 51 52 53 53 54 54 54 55 55 56 56 56 57 58 59 60 61 62 63 66 68 70 71 72 73 73 72 72 72 71 71 70 70 69 68 68
50 51 53 53 51 51 52 53 54 55 55 56 56 56 56 57 57 58 59 60 61 62 63 65 67 69 70 70 71 71 71 71 71 70 70 70 69 68 68 68 67 67
52 54 55 55 53 54 55 56 57 57 57 57 57 57 57 58 58 59 60 61 63 64 65 67 68 69 69 70 70 70 70 69 69 69 69 68 67 67 67 66 66 66
Wind_Direction
263 263 264 265 267 268 270 273 276 277 277 279 281 282 285 287 290 293 294 295 295 296 295 295 294 294 295 296 299 301 304 306 308 310 312 314 315 316 316 317 318 320
264 265 266 266 267 268 270 273 275 276 276 277 279 281 283 285 288 291 292 293 294 294 295 294 294 295 297 299 301 304 306 307 308 310 312 314 314 314 315 316 318 320
264 265 266 268 269 271 273 274 275 276 276 277 279 281 283 285 287 290 291 293 294 295 296 297 297 299 300 302 304 305 306 307 309 311 313 313 312 313 314 316 318 319
264 266 267 268 270 272 274 276 276 276 277 278 279 280 282 284 285 288 290 293 295 296 297 298 299 300 301 303 304 305 307 308 310 311 312 311 311 312 314 316 318 319
263 264 266 268 270 271 273 274 275 275 276 277 278 279 281 282 284 286 289 292 294 296 297 298 299 300 302 303 304 306 308 309 310 310 310 309 310 313 315 317 319 320
263 264 266 267 269 271 273 274 275 275 276 277 278 280 282 284 286 287 289 292 294 296 298 299 300 301 302 303 305 307 309 309 309 308 308 309 311 314 316 319 320 321
268 268 269 270 271 272 274 275 276 277 277 278 280 282 284 286 288 290 292 293 295 297 299 300 300 301 302 303 305 307 308 308 307 307 308 310 312 315 318 320 321 322
273 273 274 274 275 275 276 277 278 278 279 281 283 285 287 289 291 293 294 295 297 298 300 300 300 301 303 304 306 306 306 306 305 306 308 311 313 316 319 321 322 323
273 275 275 276 277 277 278 279 280 281 282 284 287 289 291 293 294 295 296 297 298 299 300 300 301 302 303 305 306 306 305 305 305 307 309 312 314 317 319 321 323 324
272 274 274 276 278 278 278 280 282 284 286 289 291 293 294 296 296 297 298 299 299 300 300 301 301 302 304 305 305 304 304 304 305 308 311 313 315 317 319 321 323 324
272 273 274 276 278 279 280 282 285 288 291 293 294 296 297 298 298 298 299 300 300 301 301 301 302 303 304 304 303 302 302 304 306 309 312 313 315 317 319 321 323 323
273 275 276 277 278 280 282 284 288 291 293 294 296 297 297 298 298 299 299 300 301 301 301 302 303 303 303 302 301 301 302 305 307 310 312 313 315 317 319 321 322 322
276 276 277 277 279 281 284 287 289 292 293 295 295 296 297 297 297 298 299 300 301 301 301 302 302 301 301 300 300 301 303 306 308 310 312 313 315 317 319 320 320 320
276 277 278 278 280 282 285 288 291 293 294 295 295 296 296 296 296 297 298 299 300 300 300 300 300 300 299 300 300 302 304 306 308 309 311 313 315 317 318 319 319 319
277 278 279 281 283 286 288 290 292 294 294 295 295 295 295 295 296 296 297 298 298 298 298 298 298 298 299 299 301 303 305 307 308 309 311 313 315 316 317 318 318 319
280 282 283 285 287 289 290 291 292 293 293 293 293 293 294 294 295 295 296 296 296 296 297 297 297 297 298 299 301 304 305 307 308 309 311 313 315 316 317 317 317 318
280 282 285 287 289 290 291 291 291 291 291 291 291 292 292 293 293 294 294 294 295 295 295 295 295 296 298 300 302 304 306 307 308 310 312 313 314 315 316 316 317 318
277 280 283 286 288 289 290 290 290 290 290 290 290 290 291 291 292 292 293 293 293 294 294 294 295 296 298 301 303 305 306 307 309 310 311 312 314 315 315 316 317 318
278 281 283 286 287 288 288 289 290 290 290 290 289 289 290 290 291 291 291 292 292 293 293 294 295 297 299 301 303 305 306 308 309 310 311 312 313 314 315 316 317 318
281 283 284 285 286 286 287 289 289 290 289 289 289 289 289 289 290 290 291 291 292 292 293 294 295 298 300 302 304 305 306 307 308 309 311 312 313 314 315 316 317 317
282 282 283 283 284 285 286 287 287 288 289 289 289 289 289 289 289 290 290 291 291 292 293 295 297 299 301 302 304 305 306 307 308 309 310 312 313 314 315 316 316 316
281 280 280 281 281 282 283 285 286 286 288 288 289 289 289 289 289 290 290 291 292 293 294 296 298 299 300 302 303 304 305 306 307 309 310 311 313 314 314 315 315 316
281 279 279 280 280 280 282 283 285 286 287 288 288 289 289 289 290 290 291 292 293 294 295 296 297 298 299 300 301 303 304 306 308 309 310 311 313 314 314 315 316 316
278 279 280 282 282 282 283 284 285 286 287 287 288 288 289 289 290 290 291 292 292 293 294 295 296 297 298 299 301 303 305 306 308 309 311 312 313 313 314 315 316 316
278 280 282 284 284 283 284 285 286 286 287 287 287 287 288 288 289 289 289 290 291 291 292 294 295 296 298 299 301 304 305 307 308 310 311 312 313 314 314 315 316 316
277 279 281 282 282 282 283 285 285 286 286 286 286 286 286 286 287 287 287 288 289 290 292 294 295 297 299 301 303 304 306 307 309 310 312 312 313 313 314 315 316 316
Height
10727 10728 10729 10730 10731 10731 10732 10732 10731 10730 10730 10729 10728 10727 10726 10725 10724 10723 10721 10720 10718 10717 10715 10713 10711 10709 10708 10706 10705 10703 10701 10697 10693 10690 10687 10684 10681 10678 10675 10673 10670 10667
10723 10724 10725 10725 10726 10727 10727 10727 10727 10726 10725 10724 10723 10722 10721 10720 10719 10719 10717 10715 10714 10713 10711 10708 10706 10704 10703 10702 10700 10698 10695 10692 10688 10685 10682 10679 10676 10673 10671 10669 10666 10662
10719 10720 10720 10721 10721 10722 10722 10723 10723 10722 10721 10720 10719 10718 10716 10715 10715 10714 10713 10710 10709 10708 10706 10703 10701 10699 10697 10697 10695 10693 10690 10686 10683 10680 10677 10674 10671 10669 10666 10664 10661 10657
10715 10716 10716 10717 10717 10717 10717 10718 10718 10717 10716 10715 10714 10713 10712 10711 10710 10710 10708 10706 10704 10703 10701 10698 10696 10694 10693 10691 10690 10688 10685 10681 10677 10674 10672 10669 10666 10664 10661 10659 10655 10652
10711 10712 10712 10713 10713 10713 10713 10713 10712 10711 10710 10709 10709 10708 10707 10706 10705 10705 10704 10701 10699 10697 10696 10694 10691 10689 10688 10686 10684 10682 10680 10676 10672 10669 10667 10664 10661 10658 10656 10653 10650 10646
10706 10707 10708 10709 10709 10709 10709 10708 10707 10706 10704 10704 10703 10703 10701 10700 10700 10699 10698 10696 10694 10692 10691 10689 10686 10684 10682 10681 10679 10677 10674 10671 10666 10663 10661 10658 10655 10652 10649 10647 10643 10640
10702 10703 10703 10704 10704 10704 10704 10703 10701 10700 10699 10698 10699 10698 10696 10695 10694 10693 10692 10691 10689 10688 10686 10684 10681 10679 10676 10675 10673 10671 10669 10666 10662 10658 10656 10652 10649 10646 10643 10640 10637 10633
10697 10698 10699 10699 10699 10699 10699 10697 10696 10695 10694 10694 10694 10693 10691 10690 10689 10687 10685 10684 10684 10683 10681 10679 10676 10673 10670 10669 10667 10665 10663 10661 10657 10653 10651 10647 10644 10641 10638 10634 10631 10626
10693 10693 10694 10694 10694 10694 10693 10692 10691 10689 10689 10689 10689 10688 10686 10685 10683 10680 10679 10678 10678 10678 10676 10674 10671 10668 10665 10663 10661 10659 10657 10654 10651 10648 10646 10642 10639 10635 10632 10628 10624 10620
10689 10689 10689 10689 10689 10689 10688 10687 10685 10684 10684 10685 10684 10683 10681 10680 10677 10675 10674 10673 10672 10672 10670 10668 10666 10663 10661 10658 10655 10652 10650 10648 10645 10642 10639 10636 10633 10630 10627 10623 10619 10614
10684 10684 10684 10684 10684 10683 10683 10682 10680 10679 10680 10680 10678 10677 10676 10675 10672 10670 10669 10668 10667 10665 10664 10663 10661 10659 10657 10654 10651 10647 10644 10642 10640 10637 10633 10630 10627 10624 10621 10617 10613 10609
10679 10679 10678 10679 10679 10678 10677 10676 10675 10674 10674 10673 10673 10672 10670 10669 10667 10666 10664 10663 10661 10659 10658 10657 10655 10654 10652 10649 10646 10642 10639 10636 10633 10631 10628 10624 10621 10618 10615 10611 10607 10603
10674 10674 10674 10674 10673 10673 10672 10670 10669 10669 10668 10667 10667 10666 10665 10664 10663 10661 10659 10657 10655 10653 10652 10651 10650 10648 10646 10644 10641 10637 10633 10630 10627 10624 10622 10618 10615 10612 10609 10605 10601 10598
10670 10670 10669 10668 10668 10668 10667 10665 10664 10664 10663 10662 10662 10661 10661 10659 10658 10656 10654 10652 10650 10648 10647 10646 10645 10643 10641 10638 10635 10631 10628 10625 10621 10619 10616 10613 10610 10606 10603 10599 10595 10592
10666 10666 10664 10663 10662 10662 10661 10660 10659 10658 10657 10656 10656 10656 10655 10654 10652 10651 10649 10647 10645 10643 10642 10641 10639 10637 10635 10633 10629 10626 10623 10619 10616 10613 10610 10607 10604 10600 10597 10593 10589 10585
10662 10661 10659 10658 10657 10656 10656 10655 10654 10654 10652 10652 10651 10651 10650 10649 10647 10645 10644 10642 10640 10638 10637 10635 10634 10632 10630 10627 10624 10621 10617 10614 10610 10607 10604 10601 10598 10594 10590 10586 10582 10578
10656 10655 10654 10653 10652 10651 10650 10650 10650 10649 10648 10647 10646 10646 10645 10643 10642 10640 10639 10637 10635 10633 10632 10630 10628 10626 10624 10621 10618 10615 10612 10608 10605 10601 10598 10595 10591 10588 10584 10580 10575 10571
10651 10650 10649 10648 10647 10646 10645 10645 10644 10644 10643 10642 10642 10640 10639 10638 10637 10635 10634 10632 10630 10628 10626 10625 10623 10620 10618 10615 10613 10610 10606 10603 10599 10596 10592 10589 10586 10582 10578 10574 10569 10564
10646 10645 10644 10643 10642 10641 10640 10639 10639 10639 10638 10638 10637 10636 10635 10634 10632 10630 10628 10627 10625 10623 10621 10619 10617 10615 10612 10609 10607 10604 10600 10597 10594 10590 10587 10584 10580 10576 10572 10567 10563 10558
10640 10639 10639 10638 10637 10635 10634 10634 10634 10633 10633 10633 10632 10631 10630 10628 10627 10625 10623 10621 10620 10618 10616 10614 10612 10609 10606 10603 10601 10598 10595 10591 10588 10585 10582 10578 10574 10570 10566 10561 10556 10552
10634 10634 10634 10633 10631 10630 10630 10630 10629 10628 10628 10628 10627 10626 10625 10623 10621 10620 10618 10616 10614 10612 10610 10609 10606 10603 10600 10597 10595 10592 10589 10586 10583 10579 10576 10572 10568 10564 10559 10555 10550 10546
10628 10628 10628 10626 10626 10625 10625 10625 10624 10623 10623 10623 10622 10621 10619 10617 10616 10614 10612 10611 10609 10607 10605 10603 10600 10597 10594 10592 10589 10587 10584 10580 10577 10573 10570 10566 10562 10557 10553 10548 10544 10539
10621 10622 10622 10620 10620 10620 10620 10619 10618 10618 10618 10617 10616 10615 10613 10612 10610 10608 10607 10605 10603 10601 10599 10597 10595 10592 10589 10586 10584 10581 10578 10575 10571 10567 10563 10559 10555 10551 10546 10542 10537 10533
10615 10615 10615 10615 10615 10614 10613 10613 10613 10613 10612 10611 10610 10609 10607 10606 10604 10602 10601 10599 10597 10595 10593 10591 10589 10586 10583 10581 10579 10576 10572 10569 10565 10561 10557 10553 10549 10544 10540 10535 10531 10527
10610 10609 10609 10609 10610 10609 10607 10607 10607 10607 10606 10605 10604 10603 10601 10600 10598 10597 10595 10593 10591 10589 10588 10586 10583 10580 10578 10576 10573 10570 10566 10563 10559 10555 10551 10547 10542 10538 10534 10530 10525 10521
10604 10604 10604 10605 10604 10603 10602 10602 10602 10601 10600 10599 10598 10596 10595 10594 10592 10591 10589 10587 10586 10584 10583 10580 10577 10574 10572 10570 10567 10564 10560 10556 10553 10549 10545 10541 10537 10532 10528 10524 10520 10516